This demonstration page uses our WeatherBlox Daily Observations layout. Learn more.

Left ArrowRight Arrow

41.86663, -103.66717

Hourly Observations for January 15, 2017

Temp ( °F °C ) Dew Point ( °F °C ) Humidity (%) Winds ( mph kmh ) Pressure ( in mb ) Visibility ( mi km ) Precip ( " mm )
12:53 am 00:53 Clear 20 -6.7 15 -9.4 81 81 ENE 3 6 30.30 1026 10 16 0.00 0.00
1:53 am 01:53 Clear 19 -7.2 14 -10 81 81 NE 3 6 30.28 1025 10 16 0.00 0.00
2:53 am 02:53 Clear 17 -8.3 12 -11.1 80 80 NNE 3 6 30.28 1025 10 16 0.00 0.00
3:53 am 03:53 Clear 17 -8.3 13 -10.6 84 84 N 3 6 30.26 1025 10 16 0.00 0.00
4:53 am 04:53 Clear 16 -8.9 13 -10.6 88 88 WNW 5 7 30.27 1025 9 14 0.00 0.00
5:53 am 05:53 Clear 17 -8.3 13 -10.6 84 84 Calm 30.30 1026 8 13 0.00 0.00
6:53 am 06:53 Clear 17 -8.3 13 -10.6 84 84 N 7 11 30.27 1025 8 13 0.00 0.00
7:53 am 07:53 Sunny with Mist and Fog 16 -8.9 13 -10.6 88 88 W 6 9 30.27 1025 6 10 0.00 0.00
8:53 am 08:53 Sunny 22 -5.6 18 -7.8 85 85 Calm 30.25 1024 7 11 0.00 0.00
9:53 am 09:53 Sunny 26 -3.3 21 -6.1 81 81 W 6 9 30.24 1024 9 14 0.00 0.00
10:53 am 10:53 Sunny 30 -1.1 24 -4.4 79 79 undefined N/A 30.22 1023 10 16 0.00 0.00
11:53 am 11:53 Sunny 33 0.6 24 -4.4 70 70 NW 9 15 30.17 1022 10 16 0.00 0.00
12:53 pm 12:53 Sunny 36 2.2 25 -3.9 64 64 NW 7 11 30.13 1020 10 16 0.00 0.00
1:53 pm 13:53 Sunny 38 3.3 25 -3.9 60 60 undefined N/A 30.11 1020 10 16 0.00 0.00
2:53 pm 14:53 Sunny 39 3.9 25 -3.9 57 57 NW 5 7 30.10 1019 10 16 0.00 0.00
3:53 pm 15:53 Sunny 39 3.9 25 -3.9 57 57 Calm 30.08 1019 10 16 0.00 0.00
4:53 pm 16:53 Mostly Cloudy 35 1.7 25 -3.9 67 67 Calm 30.09 1019 10 16 0.00 0.00
5:53 pm 17:53 Mostly Cloudy 31 -0.6 25 -3.9 79 79 NNW 5 7 30.11 1020 10 16 0.00 0.00
6:53 pm 18:53 Mostly Cloudy 30 -1.1 25 -3.9 82 82 NNE 8 13 30.11 1020 10 16 0.00 0.00
7:53 pm 19:53 Mostly Clear 29 -1.7 24 -4.4 82 82 NNW 6 9 30.11 1020 10 16 0.00 0.00
8:53 pm 20:53 Cloudy 30 -1.1 25 -3.9 82 82 WNW 5 7 30.10 1019 10 16 0.00 0.00
9:53 pm 21:53 Cloudy 31 -0.6 26 -3.3 82 82 Calm 30.09 1019 10 16 0.00 0.00
10:53 pm 22:53 Cloudy 32 0 27 -2.8 82 82 Calm 30.07 1018 10 16 0.00 0.00
11:53 pm 23:53 Cloudy 32 0 27 -2.8 82 82 WNW 3 6 30.06 1018 10 16 0.00 0.00

Powered by AerisWeather